Torna al catalogo

STARLINK-5278

AttivoComunicazioniVLEO
NORAD 54164·PAYLOAD·🇺🇸 United States

Lanciato Oct 28, 2022 da Vandenberg Space Force Base

Loading…

Prossimi Passaggi (prossime 24 ore)

TLE

AggiornatoSource: CelesTrak SupGP

Epoca: Sep 14, 2026, 20:41 UTC

1 54164C 22141H   26257.86229167  .00030823  00000+0  91086-3 0  2572
2 54164  53.1570 220.2978 0001270  96.7909 324.3553 15.34368351    18

Traccia STARLINK-5278 in tempo reale con AllMySat

Download on the App Store